[[{"header":{"parameterUnit":"m.s-1","parameterCategory":1,"la1":30.2991,"la2":30.254,"lo1":-89.0895,"lo2":-89.0444,"dy":0.0017,"dx":0.0017,"nx":28,"ny":28,"refTime":"2025-04-22T03:00:00:Z","depth":0,"parameterNumber":2,"parameterNumberName":"U-component_of_WINDS"},"data":[0,0,0,0,0,0,0,0,0,0,0,0,0,0,0,0,0,0,0,0,0,0,0,0,0,0,0,0,0,0,0,0,0,0,0,0,0,0,0,0,0,0,0,0,0,0,0,0,0,0,0,0,0,0,0,0,0,0,-1.9678,-1.9678,0,-1.9648,-1.9648,-1.9647,-1.9611,-1.961,-1.961,-1.9609,-1.9577,-1.9577,-1.9577,0,0,0,0,0,0,0,0,0,0,0,0,0,-1.9704,-1.9704,-1.9678,-1.9678,-1.9677,-1.9648,-1.9648,-1.9647,-1.9611,-1.961,-1.9609,-1.9609,-1.9577,-1.9577,-1.9577,0,0,0,0,0,0,0,0,0,0,0,0,0,-1.9686,-1.9704,-1.9678,-1.9656,-1.9653,-1.9648,-1.9648,-1.9647,-1.9611,-1.961,-1.9609,-1.9608,-1.9577,-1.9577,-1.9576,-1.9591,0,0,-1.9575,-1.9575,0,0,0,0,0,0,0,0,-1.9687,-1.9685,-1.9659,-1.9657,-1.9655,-1.9632,-1.9645,-1.9628,-1.9611,-1.9627,-1.9609,-1.9608,-1.9596,-1.9594,-1.959,-1.9589,-1.9588,-1.9575,-1.9575,-1.9575,-1.9574,0,0,0,0,0,0,0,-1.9688,-1.9686,-1.9666,-1.9659,-1.9656,-1.9647,-1.9644,-1.9642,-1.9617,-1.9626,-1.9623,-1.962,-1.9595,-1.9591,-1.9589,-1.9587,-1.9575,-1.9575,-1.9574,-1.9574,-1.9597,-1.9598,0,0,0,0,0,0,-1.9693,-1.9687,-1.9667,-1.9665,-1.9669,-1.9648,-1.9643,-1.964,-1.9617,-1.9612,-1.9621,-1.9618,-1.9592,-1.959,-1.9588,-1.9603,-1.9575,-1.9574,-1.9574,-1.9596,-1.9598,-1.9599,0,0,0,0,0,0,-1.9693,-1.9691,-1.9668,-1.9675,-1.9672,-1.9648,-1.9645,-1.964,-1.9636,-1.9613,-1.9608,-1.9621,-1.9591,-1.9589,-1.9591,-1.9601,-1.9574,-1.9573,-1.9595,-1.9597,-1.9598,-1.9632,0,0,0,0,0,0,-1.9694,-1.9692,-1.9697,-1.9676,-1.9672,-1.9671,-1.9645,-1.964,-1.9636,-1.9632,-1.9612,-1.9608,-1.959,-1.9591,-1.959,-1.96,-1.9573,-1.9594,-1.9596,-1.9598,-1.963,-1.9635,-1.9639,0,0,0,0,0,-1.9695,-1.9707,-1.9697,-1.9695,-1.9677,-1.9672,-1.9669,-1.9649,-1.9637,-1.9641,-1.9627,-1.9609,-1.9601,-1.9592,-1.959,-1.96,-1.9593,-1.9596,-1.9597,-1.9628,-1.9634,-1.9639,0,0,0,0,0,0,-1.9729,-1.9704,-1.9692,-1.9698,-1.9687,-1.9666,-1.9671,-1.9656,-1.9648,-1.9645,-1.9621,-1.9616,-1.9621,-1.9611,-1.9602,-1.9613,-1.9595,-1.9596,-1.9619,-1.9624,-1.9628,-1.9629,-1.9573,0,0,0,0,0,-1.9737,-1.9735,-1.9713,-1.972,-1.9716,-1.9695,-1.9691,-1.9677,-1.9665,-1.966,-1.9646,-1.9635,-1.963,-1.9627,-1.9621,-1.963,-1.9625,-1.9636,-1.964,-1.9644,-1.9645,-1.9649,-1.9653,-1.9605,-1.9605,-1.9605,0,0,-1.9753,-1.9739,-1.9739,-1.9727,-1.9717,-1.9715,-1.9691,-1.969,-1.9688,-1.966,-1.966,-1.965,-1.9636,-1.9642,-1.9643,-1.9633,-1.9658,-1.9646,-1.965,-1.9648,-1.9651,-1.9656,-1.966,-1.9607,-1.9606,-1.9606,0,0,-1.9781,-1.9772,-1.9776,-1.9767,-1.9753,-1.9739,-1.9741,-1.9722,-1.9714,-1.9715,-1.9694,-1.9692,-1.9684,-1.9675,-1.9669,-1.9698,-1.968,-1.9697,-1.9718,-1.9722,-1.9726,-1.9729,-1.9738,-1.9742,-1.9698,-1.9699,-1.9699,0,-1.9803,-1.9799,-1.978,-1.978,-1.9775,-1.9752,-1.9756,-1.9749,-1.9733,-1.973,-1.972,-1.971,-1.9699,-1.9702,-1.971,-1.9707,-1.9707,-1.9697,-1.9727,-1.973,-1.9733,-1.9741,-1.9744,-1.97,-1.97,-1.97,-1.97,0,-1.9826,-1.9825,-1.983,-1.9817,-1.9813,-1.9815,-1.9796,-1.9795,-1.9782,-1.977,-1.9771,-1.9758,-1.9749,-1.9749,-1.9736,-1.9751,-1.9745,-1.9732,-1.9712,-1.9739,-1.9747,-1.975,-1.9703,-1.9702,-1.9702,-1.9701,0,0,-1.9871,-1.9849,-1.9851,-1.9845,-1.9829,-1.9827,-1.983,-1.9822,-1.9821,-1.9812,-1.9813,-1.9808,-1.9796,-1.979,-1.9776,-1.978,-1.9803,-1.9766,-1.9765,-1.9772,-1.9817,-1.9826,-1.983,-1.9793,-1.9793,-1.9794,-1.9818,0,-1.9895,-1.9897,-1.9881,-1.9887,-1.9885,-1.9864,-1.9866,-1.9856,-1.9846,-1.9843,-1.9831,-1.9828,-1.9813,-1.9809,-1.9812,-1.9799,-1.9811,-1.9798,-1.9792,-1.9792,-1.9793,-1.9834,-1.9842,-1.9865,-1.9821,-1.9821,-1.9821,0,-1.9922,-1.9915,-1.9922,-1.9907,-1.9905,-1.9907,-1.9899,-1.9897,-1.9887,-1.9879,-1.9873,-1.9858,-1.986,-1.9844,-1.9845,-1.9837,-1.9834,-1.9828,-1.9828,-1.9825,-1.9806,-1.9829,-1.9872,-1.9875,-1.9826,-1.9826,-1.9825,0,-1.9952,-1.9945,-1.9948,-1.9944,-1.9927,-1.9929,-1.9922,-1.9911,-1.9907,-1.9901,-1.9899,-1.9893,-1.9889,-1.9885,-1.9869,-1.9859,-1.9872,-1.9855,-1.9865,-1.9865,-1.9866,-1.9865,-1.9907,-1.9868,-1.9868,-1.9868,-1.9868,0,-1.9979,-1.9983,-1.9961,-1.9963,-1.9967,-1.995,-1.9955,-1.9946,-1.9937,-1.9936,-1.9919,-1.9919,-1.9899,-1.9897,-1.9885,-1.9887,-1.9886,-1.9879,-1.9876,-1.9879,-1.988,-1.9875,-1.9872,-1.9869,-1.9869,-1.9869,-1.9869,0,-2.0012,-1.9998,-1.9999,-1.9984,-1.998,-1.9984,-1.9971,-1.9972,-1.9962,-1.9961,-1.996,-1.9944,-1.994,-1.9925,-1.9918,-1.991,-1.9917,-1.9911,-1.992,-1.9917,-1.9927,-1.9926,-1.9965,-1.9969,-1.993,-1.9931,-1.9931,0,-2.0028,-2.0031,-2.0017,-2.0015,-2.0009,-2.0007,-2.0004,-1.9988,-1.9986,-1.9976,-1.9978,-1.9974,-1.9969,-1.9965,-1.9952,-1.9947,-1.994,-1.9954,-1.9939,-1.9943,-1.9938,-1.9937,-1.9937,-1.9957,-1.9957,-1.9957,-1.9958,0,-2.0059,-2.0052,-2.0048,-2.0043,-2.004,-2.0035,-2.0029,-2.0029,-2.0011,-2.0009,-2.0006,-2.0003,-1.9997,-1.9993,-1.9986,-1.9979,-1.9965,-1.9964,-1.9965,-1.9968,-1.9972,-1.9968,-1.9926,-1.9962,-1.9961,-1.9961,-1.9961,-1.9961,-2.0082,-2.0084,-2.0075,-2.0071,-2.0066,-2.0061,-2.0061,-2.0051,-2.0048,-2.0042,-2.0033,-2.0032,-2.0023,-2.0013,-2.0007,-2.0006,-1.9998,-2.0001,-2.0001,-2.0001,-2.0003,-1.9975,-2.0005,-2.0004,-2.0004,-2.0004,-2.0004,0,-2.0111,-2.0104,-2.0102,-2.0094,-2.0092,-2.0081,-2.0074,-2.0073,-2.0072,-2.0065,-2.0061,-2.0058,-2.0055,-2.0043,-2.0039,-2.004,-2.0033,-2.0039,-2.0037,-2.0036,-2.0011,-2.0009,-2.0044,-2.0044,-2.0044,-2.0044,-2.0044,-2.0044,-2.0125,-2.0127,-2.012,-2.0119,-2.0113,-2.0111,-2.0108,-2.0103,-2.0098,-2.0095,-2.0093,-2.0086,-2.0077,-2.0072,-2.0069,-2.0065,-2.0064,-2.0071,-2.0065,-2.0041,-2.0037,-2.0034,-2.0032,-2.0071,-2.0071,-2.009,-2.009,-2.009]},{"header":{"parameterUnit":"m.s-1","parameterCategory":1,"la1":30.2991,"la2":30.254,"lo1":-89.0895,"lo2":-89.0444,"dy":0.0017,"dx":0.0017,"nx":28,"ny":28,"refTime":"2025-04-22T03:00:00:Z","depth":0,"parameterNumber":3,"parameterNumberName":"V-component_of_WINDS"},"data":[0,0,0,0,0,0,0,0,0,0,0,0,0,0,0,0,0,0,0,0,0,0,0,0,0,0,0,0,0,0,0,0,0,0,0,0,0,0,0,0,0,0,0,0,0,0,0,0,0,0,0,0,0,0,0,0,0,0,3.201,3.2009,0,3.1977,3.1977,3.1976,3.1988,3.1989,3.1989,3.199,3.1951,3.1949,3.1948,0,0,0,0,0,0,0,0,0,0,0,0,0,3.2076,3.2075,3.201,3.2009,3.2009,3.1977,3.1977,3.1976,3.1988,3.1989,3.199,3.199,3.1952,3.195,3.1947,0,0,0,0,0,0,0,0,0,0,0,0,0,3.2046,3.2075,3.201,3.2011,3.2011,3.1977,3.1977,3.1976,3.1988,3.1989,3.199,3.1991,3.1952,3.195,3.1947,3.1909,0,0,3.1939,3.1938,0,0,0,0,0,0,0,0,3.2048,3.2043,3.2011,3.2011,3.2011,3.1988,3.1986,3.1953,3.1987,3.1996,3.199,3.1991,3.1962,3.1959,3.195,3.1907,3.1905,3.1939,3.1937,3.1936,3.1936,0,0,0,0,0,0,0,3.205,3.2045,3.1997,3.2011,3.201,3.2011,3.2008,3.198,3.1973,3.1996,3.1996,3.1993,3.1962,3.1952,3.1949,3.1905,3.1939,3.1937,3.1935,3.1934,3.1828,3.1827,0,0,0,0,0,0,3.2053,3.2047,3.1998,3.1996,3.2032,3.2009,3.2006,3.1994,3.1973,3.1972,3.1992,3.1993,3.1956,3.1952,3.1948,3.1901,3.1936,3.1934,3.1932,3.183,3.1828,3.1827,0,0,0,0,0,0,3.2054,3.2048,3.1999,3.2021,3.2015,3.2007,3.1994,3.1993,3.1983,3.1971,3.1969,3.1984,3.1957,3.1951,3.1919,3.19,3.1933,3.193,3.1831,3.1829,3.1827,3.1808,0,0,0,0,0,0,3.2056,3.2049,3.2035,3.2021,3.2014,3.1972,3.1992,3.1991,3.1979,3.1981,3.1963,3.196,3.1957,3.1923,3.1916,3.1897,3.1928,3.1833,3.183,3.1828,3.1811,3.1806,3.1802,0,0,0,0,0,3.2058,3.203,3.2035,3.2029,3.1997,3.1971,3.1967,3.1966,3.1978,3.1964,3.1955,3.1961,3.1904,3.1919,3.1912,3.1892,3.1834,3.1831,3.1828,3.1812,3.1807,3.1802,0,0,0,0,0,0,3.204,3.2028,3.2033,3.2,3.1987,3.1973,3.1955,3.196,3.1942,3.1944,3.1941,3.1937,3.1903,3.1894,3.1912,3.1854,3.187,3.1866,3.1861,3.1855,3.1851,3.1854,3.1926,0,0,0,0,0,3.2033,3.2014,3.2004,3.1975,3.1969,3.1963,3.1952,3.1952,3.1937,3.1931,3.1921,3.1905,3.1883,3.1869,3.1848,3.181,3.1805,3.1792,3.1788,3.1785,3.178,3.1759,3.1753,3.1817,3.1817,3.1818,0,0,3.2016,3.2008,3.1996,3.1972,3.1962,3.1941,3.1958,3.1935,3.1919,3.1927,3.1896,3.1888,3.187,3.1834,3.1818,3.1826,3.1762,3.1781,3.1778,3.1776,3.1755,3.1749,3.1744,3.1816,3.1816,3.1816,0,0,3.1976,3.1968,3.1943,3.1933,3.1918,3.1915,3.1909,3.1895,3.189,3.186,3.1865,3.1845,3.1808,3.1795,3.1783,3.1738,3.1742,3.1731,3.1709,3.1688,3.1683,3.1678,3.1661,3.1655,3.1728,3.1727,3.1727,0,3.1957,3.1928,3.1929,3.1907,3.1895,3.1904,3.1878,3.1867,3.1845,3.1837,3.1846,3.18,3.1788,3.1749,3.1739,3.1729,3.1721,3.1733,3.1684,3.1679,3.1675,3.1659,3.1652,3.1726,3.1726,3.1726,3.1727,0,3.1905,3.1884,3.1866,3.1847,3.1833,3.1809,3.1806,3.1791,3.1793,3.1788,3.1756,3.1743,3.1719,3.171,3.1711,3.1671,3.1676,3.1685,3.1701,3.1667,3.1652,3.1646,3.1724,3.1725,3.1725,3.1726,0,0,3.1851,3.1834,3.1828,3.1819,3.1803,3.1787,3.1762,3.1741,3.1729,3.1713,3.1692,3.1661,3.1669,3.1655,3.1654,3.1636,3.16,3.1647,3.1646,3.1638,3.1555,3.1548,3.1541,3.1603,3.1602,3.1601,3.1556,0,3.1809,3.1768,3.1769,3.173,3.1711,3.1718,3.1697,3.1684,3.1678,3.166,3.1653,3.163,3.1643,3.1635,3.1617,3.1609,3.1583,3.1612,3.1581,3.158,3.1585,3.1533,3.1526,3.1484,3.155,3.1549,3.1548,0,3.1754,3.1739,3.1699,3.1687,3.1679,3.1659,3.164,3.1623,3.1608,3.1605,3.1591,3.1593,3.1566,3.1584,3.1546,3.1566,3.1553,3.1547,3.1545,3.1541,3.1562,3.1527,3.147,3.1463,3.1539,3.154,3.154,0,3.1719,3.1688,3.166,3.1653,3.1638,3.1624,3.1616,3.1603,3.159,3.1573,3.1564,3.1543,3.1531,3.1514,3.151,3.1524,3.1472,3.149,3.1467,3.1467,3.1455,3.1456,3.1395,3.1448,3.1449,3.1449,3.1449,0,3.1671,3.1646,3.1644,3.1627,3.1599,3.1599,3.1571,3.1564,3.1552,3.1532,3.1537,3.1518,3.1513,3.1493,3.1489,3.1458,3.1452,3.1448,3.1447,3.1447,3.1448,3.1438,3.1441,3.1447,3.1447,3.1448,3.1448,0,3.1626,3.1624,3.1594,3.1583,3.1579,3.1559,3.1548,3.1531,3.1526,3.1501,3.1495,3.1487,3.1463,3.1458,3.1428,3.1426,3.1389,3.1391,3.1394,3.1394,3.1372,3.1374,3.1302,3.1292,3.1353,3.1352,3.1352,0,3.1596,3.1577,3.1564,3.1552,3.1545,3.1525,3.1513,3.1513,3.1499,3.1481,3.1465,3.1442,3.1424,3.1385,3.1375,3.1353,3.1354,3.1331,3.1351,3.1351,3.1353,3.1354,3.1351,3.1326,3.1326,3.1325,3.1325,0,3.1542,3.1542,3.1525,3.1508,3.1494,3.1479,3.1466,3.1455,3.1452,3.1437,3.1414,3.14,3.1371,3.1347,3.1325,3.1315,3.1319,3.1319,3.1312,3.1312,3.1314,3.1312,3.1383,3.132,3.1321,3.1321,3.1321,3.1321,3.1503,3.1486,3.1475,3.1456,3.1446,3.1433,3.1416,3.141,3.1392,3.137,3.137,3.1344,3.1329,3.13,3.1289,3.1267,3.1274,3.1265,3.1262,3.126,3.1258,3.1319,3.1263,3.1263,3.1263,3.1263,3.1264,0,3.1449,3.1442,3.1424,3.1406,3.1391,3.1398,3.1383,3.1369,3.1347,3.1334,3.1316,3.1289,3.1266,3.1255,3.1232,3.1217,3.1218,3.1211,3.1212,3.1209,3.1253,3.1261,3.1211,3.1211,3.1211,3.1211,3.1211,3.1211,3.1418,3.1391,3.139,3.1357,3.135,3.1326,3.1317,3.1305,3.1294,3.1264,3.1246,3.124,3.1227,3.1203,3.1182,3.1179,3.117,3.1162,3.116,3.1201,3.1206,3.1211,3.1218,3.116,3.116,3.1118,3.1117,3.1117]}]]